Marysville, OH

11:47 PM EDT on April 23, 2017 (GMT -0400)
Marysville

Weather History for KMRT - January, 2014

Change the Weather History Date:

Tuesday, January 14, 2014

  Actual Average (KDLZ) Record (KDLZ)
Temperature  
Mean Temperature 36 °F -  
Max Temperature 42 °F 33 °F 60 °F (1947)
Min Temperature 31 °F 15 °F -17 °F (1977)
Degree Days  
Heating Degree Days 28    
Moisture  
Dew Point 30 °F    
Average Humidity 77    
Maximum Humidity 91    
Minimum Humidity 54    
Precipitation  
Precipitation 0.03 in - - ()
Sea Level Pressure  
Sea Level Pressure 29.79 in    
Wind  
Wind Speed 8 mph (West)    
Max Wind Speed 24 mph    
Max Gust Speed 31 mph    
Visibility 10 miles    
Events      
Averages and records for this station are not official NWS values.
T = Trace of Precipitation, MM = Missing Value Source: NWS Daily Summary

Daily Weather History Graph

Daily Weather History Graph

Search for Another Location

Airport or City:

Trip Planner

Search our weather history database for the weather conditions in past years. The results will help you decide how hot, cold, wet, or windy it might be!

Date:

Astronomy

Jan. 14, 2014 Rise Set
Actual Time 7:54 AM EST 5:31 PM EST
Civil Twilight 7:24 AM EST 6:00 PM EST
Nautical Twilight 6:50 AM EST 6:34 PM EST
Astronomical Twilight 6:18 AM EST 7:07 PM EST
Moon 4:35 PM EST (1/14) 6:28 AM EST (1/14)
Length of Visible Light 10h 36m
Length of Day
9h 36m
Waxing Gibbous, 98% of the Moon is Illuminated
Jan 14
Waxing Gibbous
Jan 15
Full
Jan 24
Last Quarter
Jan 30
New
Feb 6
First Quarter

Hourly Weather History & Observations

Time (EST) Temp. Windchill Dew Point Humidity Pressure Visibility Wind Dir Wind Speed Gust Speed Precip Events Conditions
12:14 AM 41.9 °F 36.9 °F 38.7 °F 88% 29.72 in 10.0 mi NW 8.1 mph - N/A   Overcast
12:34 AM 41.4 °F 36.2 °F 37.4 °F 86% 29.73 in 10.0 mi NW 8.1 mph - N/A   Overcast
12:54 AM 41.0 °F 35.8 °F 36.5 °F 84% 29.72 in 10.0 mi WNW 8.1 mph - N/A   Mostly Cloudy
1:15 AM 39.9 °F 34.5 °F 35.4 °F 84% 29.72 in 10.0 mi WNW 8.1 mph - N/A   Mostly Cloudy
1:34 AM 40.1 °F 36.1 °F 35.1 °F 82% 29.73 in 10.0 mi WNW 5.8 mph - N/A   Mostly Cloudy
1:54 AM 38.8 °F 34.6 °F 34.5 °F 84% 29.73 in 10.0 mi WNW 5.8 mph - N/A   Mostly Cloudy
2:15 AM 38.1 °F 35.7 °F 34.0 °F 85% 29.73 in 10.0 mi West 3.5 mph - N/A   Mostly Cloudy
2:34 AM 37.4 °F 32.8 °F 34.0 °F 87% 29.74 in 10.0 mi West 5.8 mph - N/A   Scattered Clouds
2:55 AM 37.8 °F 33.3 °F 33.8 °F 86% 29.74 in 10.0 mi WNW 5.8 mph - N/A   Scattered Clouds
3:14 AM 37.4 °F 32.8 °F 33.3 °F 85% 29.75 in 10.0 mi WNW 5.8 mph - N/A   Scattered Clouds
3:34 AM 36.1 °F 30.6 °F 32.9 °F 88% 29.75 in 10.0 mi WNW 6.9 mph - N/A   Mostly Cloudy
3:55 AM 36.0 °F 31.1 °F 32.4 °F 87% 29.75 in 10.0 mi West 5.8 mph - N/A   Overcast
4:14 AM 35.4 °F 30.5 °F 32.0 °F 87% 29.77 in 10.0 mi WNW 5.8 mph - N/A   Overcast
4:34 AM 34.9 °F 28.3 °F 32.0 °F 89% 29.75 in 10.0 mi WNW 8.1 mph - N/A   Overcast
4:55 AM 34.7 °F 26.9 °F 31.5 °F 88% 29.75 in 10.0 mi WNW 10.4 mph - N/A   Overcast
5:14 AM 33.8 °F 25.3 °F 30.9 °F 89% 29.78 in 7.0 mi WNW 11.5 mph - N/A   Overcast
5:34 AM 33.3 °F 26.4 °F 30.7 °F 90% 29.79 in 7.0 mi NW 8.1 mph - N/A   Overcast
5:55 AM 32.2 °F 25.0 °F 29.8 °F 91% 29.80 in 7.0 mi West 8.1 mph - N/A   Overcast
6:14 AM 32.0 °F 24.2 °F 29.3 °F 90% 29.79 in 7.0 mi WNW 9.2 mph - N/A   Overcast
6:34 AM 32.0 °F 24.2 °F 29.1 °F 89% 29.80 in 7.0 mi WNW 9.2 mph - N/A   Overcast
6:55 AM 32.0 °F 24.8 °F 28.4 °F 87% 29.80 in 10.0 mi WNW 8.1 mph - N/A   Overcast
7:14 AM 31.8 °F 26.2 °F 28.0 °F 86% 29.81 in 10.0 mi WNW 5.8 mph - N/A   Overcast
7:34 AM 31.6 °F 25.1 °F 27.5 °F 85% 29.80 in 10.0 mi WNW 6.9 mph - N/A   Overcast
7:55 AM 31.8 °F - 27.5 °F 84% 29.81 in 7.0 mi Calm Calm - N/A   Overcast
8:14 AM 31.6 °F 28.3 °F 27.5 °F 85% 29.82 in 7.0 mi WSW 3.5 mph - N/A   Overcast
8:35 AM 31.1 °F 25.4 °F 26.4 °F 83% 29.82 in 10.0 mi WNW 5.8 mph - N/A   Overcast
8:54 AM 31.1 °F 26.4 °F 26.4 °F 83% 29.83 in 10.0 mi WNW 4.6 mph - N/A   Overcast
9:15 AM 31.1 °F 26.4 °F 26.6 °F 83% 29.83 in 10.0 mi West 4.6 mph - N/A   Overcast
9:34 AM 31.1 °F 26.4 °F 26.2 °F 82% 29.84 in 10.0 mi WSW 4.6 mph - N/A   Overcast
9:54 AM 31.1 °F 27.7 °F 26.2 °F 82% 29.84 in 10.0 mi SW 3.5 mph - N/A   Mostly Cloudy
10:15 AM 31.6 °F 25.1 °F 27.0 °F 83% 29.84 in 10.0 mi SW 6.9 mph - N/A   Mostly Cloudy
10:34 AM 31.8 °F 25.4 °F 26.8 °F 82% 29.84 in 7.0 mi WSW 6.9 mph - N/A   Overcast
10:54 AM 31.6 °F 25.1 °F 26.8 °F 82% 29.84 in 7.0 mi SW 6.9 mph - N/A   Mostly Cloudy
11:15 AM 33.1 °F 27.7 °F 28.4 °F 83% 29.83 in 10.0 mi SW 5.8 mph - N/A   Mostly Cloudy
11:34 AM 33.6 °F 28.4 °F 28.4 °F 81% 29.83 in 10.0 mi WSW 5.8 mph - N/A   Scattered Clouds
11:54 AM 34.5 °F 27.9 °F 28.4 °F 78% 29.83 in 10.0 mi SW 8.1 mph - N/A   Scattered Clouds
12:14 PM 35.1 °F 29.3 °F 28.6 °F 77% 29.82 in 10.0 mi SW 6.9 mph - N/A   Clear
12:34 PM 36.5 °F 31.8 °F 29.7 °F 76% 29.80 in 10.0 mi SW 5.8 mph - N/A   Clear
12:55 PM 37.4 °F 31.4 °F 29.7 °F 74% 29.79 in 10.0 mi SSW 8.1 mph - N/A   Clear
1:14 PM 38.3 °F 31.9 °F 29.8 °F 72% 29.78 in 10.0 mi South 9.2 mph - N/A   Clear
1:34 PM 39.2 °F 32.0 °F 29.7 °F 69% 29.79 in 10.0 mi SW 11.5 mph - N/A   Clear
1:54 PM 40.3 °F 33.0 °F 30.6 °F 68% 29.79 in 10.0 mi SW 12.7 mph - N/A   Clear
2:14 PM 41.4 °F 34.3 °F 30.0 °F 64% 29.78 in 10.0 mi SSW 12.7 mph 16.1 mph N/A   Clear
2:35 PM 42.1 °F 35.7 °F 28.4 °F 58% 29.78 in 10.0 mi SW 11.5 mph - N/A   Clear
2:54 PM 42.3 °F 35.5 °F 28.2 °F 58% 29.77 in 10.0 mi SW 12.7 mph - N/A   Clear
3:14 PM 42.8 °F 35.8 °F 28.8 °F 58% 29.77 in 10.0 mi SSW 13.8 mph - N/A   Clear
3:34 PM 42.8 °F 35.8 °F 27.5 °F 55% 29.76 in 10.0 mi SSW 13.8 mph 18.4 mph N/A   Clear
3:54 PM 42.8 °F 35.8 °F 27.1 °F 54% 29.76 in 10.0 mi SSW 13.8 mph - N/A   Clear
4:15 PM 42.8 °F 36.2 °F 28.0 °F 56% 29.76 in 10.0 mi SSW 12.7 mph - N/A   Clear
4:34 PM 41.7 °F 36.1 °F 28.4 °F 59% 29.75 in 10.0 mi South 9.2 mph - N/A   Clear
4:54 PM 41.0 °F 33.9 °F 28.9 °F 62% 29.75 in 10.0 mi SSW 12.7 mph 17.3 mph N/A   Mostly Cloudy
5:15 PM 40.8 °F 34.1 °F 29.3 °F 64% 29.74 in 10.0 mi SSW 11.5 mph 16.1 mph N/A   Overcast
5:34 PM 40.3 °F 33.4 °F 29.7 °F 66% 29.76 in 10.0 mi SSW 11.5 mph - N/A   Overcast
5:54 PM 40.3 °F 33.0 °F 29.8 °F 66% 29.77 in 10.0 mi SW 12.7 mph - N/A   Overcast
6:15 PM 39.9 °F 33.4 °F 30.9 °F 70% 29.77 in 10.0 mi SW 10.4 mph - N/A   Overcast
6:34 PM 39.4 °F 32.7 °F 31.8 °F 74% 29.77 in 10.0 mi SW 10.4 mph - N/A   Overcast
6:54 PM 39.4 °F 33.2 °F 32.0 °F 75% 29.78 in 10.0 mi SW 9.2 mph - N/A   Overcast
7:15 PM 40.1 °F 34.1 °F 32.0 °F 73% 29.78 in 10.0 mi SW 9.2 mph - N/A   Overcast
7:34 PM 39.9 °F 33.9 °F 32.0 °F 73% 29.78 in 10.0 mi SW 9.2 mph - N/A   Overcast
7:54 PM 40.1 °F 33.2 °F 31.3 °F 71% 29.78 in 10.0 mi WSW 11.5 mph - N/A   Overcast
8:14 PM 39.9 °F 33.4 °F 31.3 °F 71% 29.79 in 10.0 mi West 10.4 mph - N/A   Overcast
8:34 PM 39.2 °F 32.0 °F 33.1 °F 79% 29.80 in 10.0 mi WSW 11.5 mph 18.4 mph N/A   Overcast
8:55 PM 39.2 °F 29.0 °F 33.4 °F 80% 29.81 in 10.0 mi WNW 21.9 mph 26.5 mph N/A   Overcast
9:14 PM 36.1 °F 24.4 °F 31.5 °F 83% 29.83 in 10.0 mi WNW 24.2 mph 31.1 mph N/A   Overcast
9:34 PM 34.0 °F 24.2 °F 28.8 °F 81% 29.84 in 10.0 mi WNW 15.0 mph 28.8 mph N/A   Overcast
9:55 PM 33.8 °F 24.8 °F 27.9 °F 79% 29.84 in 10.0 mi WNW 12.7 mph - N/A   Overcast
10:14 PM 33.1 °F 23.0 °F 26.4 °F 77% 29.85 in 10.0 mi WNW 15.0 mph 21.9 mph N/A   Overcast
10:34 PM 32.4 °F 20.9 °F 25.7 °F 76% 29.85 in 10.0 mi WNW 18.4 mph 21.9 mph N/A   Overcast
10:54 PM 32.0 °F 23.0 °F 24.6 °F 74% 29.85 in 10.0 mi WNW 11.5 mph 21.9 mph N/A   Overcast
11:14 PM 31.8 °F 23.3 °F 23.4 °F 71% 29.85 in 10.0 mi WNW 10.4 mph - N/A   Overcast
11:35 PM 31.6 °F 22.1 °F 23.2 °F 71% 29.84 in 10.0 mi WNW 12.7 mph 17.3 mph N/A   Mostly Cloudy
11:54 PM 31.1 °F 22.4 °F 23.2 °F 72% 29.84 in 10.0 mi West 10.4 mph - N/A   Mostly Cloudy